Content
SEND FEEDBACK

Daily
Averages
Monthly
Summary
United States of America

MALDEN, MISSOURI


Home > North America > United States > Missouri
Elevation: 295 feet     Latitude: 36 36N     Longitude: 089 59W

WEATHER
 
SELECT A DAY
Number of Records: 207,718;   Date Range: 1/1/95 - 7/29/14
 
SHARE

PRINT THIS DATA

[ ← Previous Day ]
WEATHER ALMANAC - JUNE 9, 2014
[ Next Day → ]
[ °C ]   °F
Weather ElementAverageHighLow
Temperature69.3 °F72 °F (1:22 pm)66.9 °F (1:53 am)
Dewpoint64 °F66.9 °F (5:34 pm)61 °F (3:53 am)
Humidity83.2 %87 % (12:09 pm)78 % (7:53 am)
Barometer29.81 in29.91 in (1:53 am)29.71 in (8:53 pm)
Wind Speed6.9 mph11.5 mph (7:38 pm)
Weather ElementAverage
Visibility7.6 mi
Wind DirectionESE (105.4 °)

Weather ElementTotal
Precipitation0.30 in
Cooling Degree Days4.5 (Base 65)
Growing Degree Days19.5 (Base 50)
Averaged from 37 records on June 9, 2014
WEATHER CONDITIONS BREAKOUT
WIND DIRECTION BREAKOUT
WEATHER BY HOUR - JUNE 9, 2014
[ °C ]   °F
Local TimeTemperatureDewpointHumidityBarometerVisibilityWind DirectionWind SpeedGust SpeedPrecipitationEventsConditions
1:53 AM66.9 °F62.1 °F84 %29.91 in5.0 miEast (90°)8.1 mph0.01 inRainLight Rain
2:53 AM66.9 °F62.1 °F84 %29.88 in8.0 miNE (50°)5.8 mph0.00 inOvercast
3:53 AM66.9 °F61.0 °F81 %29.86 in10.0 miENE (60°)6.9 mphOvercast
4:02 AM66.9 °F61.0 °F81 %29.86 in10.0 miENE (60°)5.8 mphOvercast
4:15 AM66.9 °F61.0 °F81 %29.86 in10.0 miNE (50°)8.1 mphOvercast
4:53 AM66.9 °F61.0 °F81 %29.85 in9.0 miENE (70°)5.8 mphOvercast
5:53 AM66.9 °F61.0 °F81 %29.85 in8.0 miEast (100°)5.8 mphOvercast
6:53 AM66.9 °F61.0 °F81 %29.85 in7.0 miEast (80°)5.8 mphOvercast
7:05 AM66.9 °F61.0 °F81 %29.86 in7.0 miENE (70°)3.5 mphOvercast
7:31 AM68.0 °F62.1 °F81 %29.86 in7.0 miNE (50°)5.8 mphOvercast
7:53 AM69.1 °F62.1 °F78 %29.85 in7.0 miENE (60°)3.5 mphOvercast
8:53 AM69.1 °F62.1 °F78 %29.87 in7.0 miEast (90°)5.8 mphOvercast
10:02 AM69.1 °F62.1 °F78 %29.88 in8.0 miESE (120°)8.1 mphOvercast
10:53 AM69.1 °F63.0 °F81 %29.86 in8.0 miSE (140°)8.1 mphOvercast
11:53 AM69.1 °F64.0 °F84 %29.86 in4.0 miSSE (150°)4.6 mph0.01 inRainLight Rain
12:00 PM69.1 °F64.0 °F84 %29.87 in4.0 miSE (140°)6.9 mph0.00 inRainLight Rain
12:09 PM69.1 °F64.9 °F87 %29.87 in4.0 miSE (140°)5.8 mph0.00 inOvercast
12:22 PM69.1 °F64.9 °F87 %29.86 in6.0 miSE (130°)4.6 mph0.00 inRainLight Rain
12:35 PM70.0 °F64.9 °F84 %29.85 in10.0 miVariable4.6 mph0.00 inOvercast
12:53 PM71.1 °F64.9 °F81 %29.83 in10.0 miEast (90°)3.5 mph0.00 inOvercast
1:22 PM72.0 °F64.9 °F78 %29.83 in10.0 miEast (90°)4.6 mphOvercast
3:53 PM72.0 °F66.0 °F81 %29.77 in10.0 miESE (110°)6.9 mph0.00 inOvercast
4:53 PM71.1 °F66.0 °F84 %29.75 in4.0 miEast (90°)6.9 mph0.04 inRainLight Rain
5:00 PM71.1 °F66.0 °F84 %29.75 in4.0 miEast (100°)6.9 mph0.01 inRainRain
5:22 PM71.1 °F66.0 °F84 %29.74 in3.0 miEast (90°)6.9 mph0.05 inRainLight Rain
5:34 PM71.1 °F66.9 °F87 %29.74 in5.0 miESE (110°)6.9 mph0.06 inRainLight Rain
5:53 PM71.1 °F66.9 °F87 %29.73 in4.0 miEast (100°)6.9 mph0.06 inRainLight Rain
6:53 PM71.1 °F66.9 °F87 %29.72 in4.0 miESE (120°)10.4 mph0.04 inRainLight Rain
7:38 PM71.1 °F66.9 °F87 %29.73 in9.0 miESE (120°)11.5 mph0.01 inOvercast
7:53 PM71.1 °F66.9 °F87 %29.72 in9.0 miSE (140°)10.4 mph0.01 inOvercast
8:40 PM71.1 °F66.9 °F87 %29.72 in10.0 miSSE (160°)9.2 mphOvercast
8:53 PM71.1 °F66.9 °F87 %29.71 in10.0 miSE (130°)8.1 mphOvercast
9:53 PM69.1 °F64.0 °F84 %29.73 in10.0 miSSE (160°)10.4 mphOvercast
10:30 PM69.1 °F64.0 °F84 %29.74 in10.0 miSSE (160°)9.2 mphOvercast
10:37 PM69.1 °F64.0 °F84 %29.74 in10.0 miSSE (160°)9.2 mphOvercast
10:53 PM69.1 °F64.0 °F84 %29.73 in10.0 miSSE (160°)5.8 mphOvercast
11:53 PM69.1 °F64.0 °F84 %29.74 in10.0 miSSE (160°)6.9 mphOvercast
Hourly data recorded from KPOF, located miles away from Malden, Missouri







STORIES FROM OUR PARTNERS